Location: ČR
(50.0000°N, 15.0000°E)
Time: 07:50:15
(UTC+02:00)

A-11 Canister half - Pass Details

Date: 19 March 2026
Orbit: 1514 x 1685 km, 47.2° (Epoch: 18 April)

Event Time Altitude Azimuth Distance (km) Brightness Sun altitude
Rises 16:32:31 0° 273° (W) 4,885 13.0 14.7°
Reaches altitude 10° 16:35:38 10° 272° (W) 3,914 12.8 14.3°
Maximum altitude 16:45:42 75° 189° (S) 1,736 9.7 12.7°
Drops below altitude 10° 16:55:49 10° 107° (ESE) 3,942 10.7 11.2°
Sets 16:58:59 0° 106° (ESE) 4,921 11.1 10.7°
